Location: Chmeli�t?
(49.8978°N, 15.0526°E)
Time: 01:27:01
(UTC+00:00)

STARLINK-80 - Pass Details

Date: 07 June 2020
Orbit: 487 x 491 km, 53.0° (Epoch: 15 July)

Event Time Altitude Azimuth Distance (km) Brightness Sun altitude
Exits shadow 01:51:57 - 267° (W) 2,461 6.5 -7.8°
Reaches altitude 10° 01:53:53 10° 271° (W) 1,690 5.7 -7.6°
Maximum altitude 01:57:39 56° 351° (N) 591 4.0 -7.2°
Drops below altitude 10° 02:01:27 10° 71° (ENE) 1,705 7.2 -6.8°
Sets 02:03:37 0° 75° (ENE) 2,572 8.1 -6.6°
